{"data":{"norad_id":87293,"epoch":"2026-05-23T19:11:01.847616Z","epoch_age_seconds":181832,"freshness":"STALE","line1":"1 87293U          26143.79932694  .00002238  00000+0  43229-3 0  9991","line2":"2 87293  65.8967  73.5425 0428186 272.6465  82.5693 14.20363229636997","mean_motion":14.20363229,"eccentricity":0.0428186,"inclination_deg":65.8967,"raan_deg":73.5425,"arg_perigee_deg":272.6465,"mean_anomaly_deg":82.5693,"bstar":0.00043229,"rev_number":63699,"period_min":101.38251755601,"perigee_km":515.73388187935,"apogee_km":1132.5154025876,"semimajor_km":7202.2616422335,"source":"CELESTRAK","updated_at":"2026-05-25T13:38:11.667115Z"}}